Data supplied by UK-AIR on 21/1/2015
All Data GMT hour ending 
Status: R =Ratified P=Provisional,P*=As supplied
,,High Muffles,,,,,,,,,,,,,,,,,,,,,,,
Date,time,"Nitric oxide",status,unit,"Nitrogen dioxide",status,unit,"Nitrogen oxides as nitrogen dioxide",status,unit,"Ozone",status,unit
 
01-01-2013,01:00,0.57043,R,ugm-3,1.22910,R,ugm-3,2.10388,R,ugm-3,63.13064,R,ugm-3
01-01-2013,02:00,,,,,,,,,,69.45036,R,ugm-3
01-01-2013,03:00,0.85565,R,ugm-3,1.24504,R,ugm-3,2.55730,R,ugm-3,70.34843,R,ugm-3
01-01-2013,04:00,0.81979,R,ugm-3,0.86541,R,ugm-3,2.12201,R,ugm-3,72.19445,R,ugm-3
01-01-2013,05:00,1.10480,R,ugm-3,0.97251,R,ugm-3,2.66612,R,ugm-3,70.79746,R,ugm-3
01-01-2013,06:00,0.96229,R,ugm-3,1.02749,R,ugm-3,2.50289,R,ugm-3,64.91014,R,ugm-3
01-01-2013,07:00,0.85565,R,ugm-3,0.97346,R,ugm-3,2.28525,R,ugm-3,66.15746,R,ugm-3
01-01-2013,08:00,0.85565,R,ugm-3,1.02797,R,ugm-3,2.33966,R,ugm-3,62.21595,R,ugm-3
01-01-2013,09:00,0.74869,R,ugm-3,0.75592,R,ugm-3,1.90437,R,ugm-3,64.81036,R,ugm-3
01-01-2013,10:00,0.60588,R,ugm-3,0.86636,R,ugm-3,1.79555,R,ugm-3,63.81251,R,ugm-3
01-01-2013,11:00,0.99784,R,ugm-3,1.02797,R,ugm-3,2.55730,R,ugm-3,62.96434,R,ugm-3
01-01-2013,12:00,0.71314,R,ugm-3,1.19197,R,ugm-3,2.28525,R,ugm-3,64.86025,R,ugm-3
01-01-2013,13:00,0.74869,R,ugm-3,1.13746,R,ugm-3,2.28525,R,ugm-3,65.10971,R,ugm-3
01-01-2013,14:00,0.85565,R,ugm-3,1.08200,R,ugm-3,2.39407,R,ugm-3,65.35918,R,ugm-3
01-01-2013,15:00,0.89120,R,ugm-3,1.30002,R,ugm-3,2.66612,R,ugm-3,64.51100,R,ugm-3
01-01-2013,16:00,0.67760,R,ugm-3,1.19197,R,ugm-3,2.23084,R,ugm-3,66.50670,R,ugm-3
01-01-2013,17:00,0.57033,R,ugm-3,1.57447,R,ugm-3,2.44848,R,ugm-3,62.71487,R,ugm-3
01-01-2013,18:00,0.64174,R,ugm-3,1.46450,R,ugm-3,2.44848,R,ugm-3,64.21165,R,ugm-3
01-01-2013,19:00,0.67728,R,ugm-3,1.24695,R,ugm-3,2.28525,R,ugm-3,64.06197,R,ugm-3
01-01-2013,20:00,0.85565,R,ugm-3,1.35405,R,ugm-3,2.66612,R,ugm-3,62.71487,R,ugm-3
01-01-2013,21:00,0.71346,R,ugm-3,1.24599,R,ugm-3,2.33966,R,ugm-3,60.66928,R,ugm-3
01-01-2013,22:00,0.67728,R,ugm-3,1.35548,R,ugm-3,2.39407,R,ugm-3,59.92089,R,ugm-3
01-01-2013,23:00,0.99815,R,ugm-3,1.08104,R,ugm-3,2.61171,R,ugm-3,60.56950,R,ugm-3
01-01-2013,24:00,0.67728,R,ugm-3,1.19244,R,ugm-3,2.23084,R,ugm-3,62.01638,R,ugm-3
02-01-2013,01:00,0.80867,R,ugm-3,1.01108,R,ugm-3,2.25095,R,ugm-3,61.66713,R,ugm-3
02-01-2013,02:00,,,,,,,,,,61.99975,R,ugm-3
02-01-2013,03:00,0.85627,R,ugm-3,0.81090,R,ugm-3,2.12388,R,ugm-3,62.41552,R,ugm-3
02-01-2013,04:00,0.92737,R,ugm-3,0.86541,R,ugm-3,2.28725,R,ugm-3,60.81896,R,ugm-3
02-01-2013,05:00,0.82041,R,ugm-3,0.81138,R,ugm-3,2.06942,R,ugm-3,60.36993,R,ugm-3
02-01-2013,06:00,0.78455,R,ugm-3,0.86636,R,ugm-3,2.06942,R,ugm-3,61.56735,R,ugm-3
02-01-2013,07:00,0.71346,R,ugm-3,0.97538,R,ugm-3,2.06942,R,ugm-3,59.47186,R,ugm-3
02-01-2013,08:00,0.71346,R,ugm-3,1.19340,R,ugm-3,2.28725,R,ugm-3,56.52820,R,ugm-3
02-01-2013,09:00,0.92768,R,ugm-3,1.35501,R,ugm-3,2.77738,R,ugm-3,52.43702,R,ugm-3
02-01-2013,10:00,0.82041,R,ugm-3,2.71718,R,ugm-3,3.97547,R,ugm-3,46.49981,R,ugm-3
02-01-2013,11:00,0.85627,R,ugm-3,5.60315,R,ugm-3,6.91622,R,ugm-3,46.35013,R,ugm-3
02-01-2013,12:00,2.28318,R,ugm-3,20.67843,R,ugm-3,24.17955,R,ugm-3,37.71873,R,ugm-3
02-01-2013,13:00,2.63960,R,ugm-3,29.38987,R,ugm-3,33.43748,R,ugm-3,26.74238,R,ugm-3
02-01-2013,14:00,1.71223,R,ugm-3,25.69300,R,ugm-3,28.31839,R,ugm-3,33.02884,R,ugm-3
02-01-2013,15:00,1.49863,R,ugm-3,25.96649,R,ugm-3,28.26393,R,ugm-3,33.07873,R,ugm-3
02-01-2013,16:00,1.14128,R,ugm-3,23.02889,R,ugm-3,24.77859,R,ugm-3,31.18281,R,ugm-3
02-01-2013,17:00,1.03464,R,ugm-3,16.87494,R,ugm-3,18.46141,R,ugm-3,37.12002,R,ugm-3
02-01-2013,18:00,0.67791,R,ugm-3,5.93114,R,ugm-3,6.97068,R,ugm-3,51.04003,R,ugm-3
02-01-2013,19:00,0.42814,R,ugm-3,3.04661,R,ugm-3,3.70317,R,ugm-3,53.08562,R,ugm-3
02-01-2013,20:00,0.78486,R,ugm-3,2.49916,R,ugm-3,3.70317,R,ugm-3,53.28519,R,ugm-3
02-01-2013,21:00,0.71346,R,ugm-3,2.17308,R,ugm-3,3.26751,R,ugm-3,54.43272,R,ugm-3
02-01-2013,22:00,0.49923,R,ugm-3,2.17499,R,ugm-3,2.94076,R,ugm-3,53.93379,R,ugm-3
02-01-2013,23:00,0.67760,R,ugm-3,2.17356,R,ugm-3,3.21305,R,ugm-3,53.08562,R,ugm-3
02-01-2013,24:00,0.49954,R,ugm-3,2.55606,R,ugm-3,3.32197,R,ugm-3,53.58455,R,ugm-3
03-01-2013,01:00,0.66606,R,ugm-3,1.30433,R,ugm-3,2.32560,R,ugm-3,53.48476,R,ugm-3
03-01-2013,02:00,,,,,,,,,,51.22297,R,ugm-3
03-01-2013,03:00,0.32118,R,ugm-3,1.74229,R,ugm-3,2.23476,R,ugm-3,50.04218,R,ugm-3
03-01-2013,04:00,0.71346,R,ugm-3,1.08630,R,ugm-3,2.18025,R,ugm-3,52.38713,R,ugm-3
03-01-2013,05:00,0.60650,R,ugm-3,0.97777,R,ugm-3,1.90772,R,ugm-3,53.33508,R,ugm-3
03-01-2013,06:00,0.35673,R,ugm-3,0.70667,R,ugm-3,1.25364,R,ugm-3,57.67573,R,ugm-3
03-01-2013,07:00,0.71314,R,ugm-3,1.03227,R,ugm-3,2.12574,R,ugm-3,55.72992,R,ugm-3
03-01-2013,08:00,0.53509,R,ugm-3,0.92374,R,ugm-3,1.74420,R,ugm-3,56.72777,R,ugm-3
03-01-2013,09:00,0.71346,R,ugm-3,1.35883,R,ugm-3,2.45278,R,ugm-3,59.32218,R,ugm-3
03-01-2013,10:00,0.85627,R,ugm-3,1.79393,R,ugm-3,3.10686,R,ugm-3,64.31143,R,ugm-3
03-01-2013,11:00,0.60650,R,ugm-3,1.35931,R,ugm-3,2.28926,R,ugm-3,64.31143,R,ugm-3
03-01-2013,12:00,0.78486,R,ugm-3,1.41286,R,ugm-3,2.61630,R,ugm-3,61.76692,R,ugm-3
03-01-2013,13:00,0.71346,R,ugm-3,1.74038,R,ugm-3,2.83433,R,ugm-3,63.96219,R,ugm-3
03-01-2013,14:00,0.60650,R,ugm-3,1.30480,R,ugm-3,2.23476,R,ugm-3,66.25724,R,ugm-3
03-01-2013,15:00,0.67791,R,ugm-3,1.08630,R,ugm-3,2.12574,R,ugm-3,68.00348,R,ugm-3
03-01-2013,16:00,0.82010,R,ugm-3,2.33994,R,ugm-3,3.59741,R,ugm-3,64.31143,R,ugm-3
03-01-2013,17:00,0.53540,R,ugm-3,2.93999,R,ugm-3,3.76093,R,ugm-3,57.47616,R,ugm-3
03-01-2013,18:00,0.53509,R,ugm-3,3.48553,R,ugm-3,4.30599,R,ugm-3,51.48906,R,ugm-3
03-01-2013,19:00,0.53478,R,ugm-3,6.75638,R,ugm-3,7.57637,R,ugm-3,42.25895,R,ugm-3
03-01-2013,20:00,0.74932,R,ugm-3,5.11928,R,ugm-3,6.26822,R,ugm-3,44.45422,R,ugm-3
03-01-2013,21:00,0.74900,R,ugm-3,2.61248,R,ugm-3,3.76093,R,ugm-3,47.14841,R,ugm-3
03-01-2013,22:00,0.60650,R,ugm-3,1.84987,R,ugm-3,2.77982,R,ugm-3,51.88820,R,ugm-3
03-01-2013,23:00,0.82041,R,ugm-3,1.52187,R,ugm-3,2.77982,R,ugm-3,51.04003,R,ugm-3
03-01-2013,24:00,0.67791,R,ugm-3,1.03179,R,ugm-3,2.07124,R,ugm-3,50.64089,R,ugm-3
04-01-2013,01:00,0.57126,R,ugm-3,1.08630,R,ugm-3,1.96223,R,ugm-3,52.61996,R,ugm-3
04-01-2013,02:00,,,,,,,,,,58.00835,R,ugm-3
04-01-2013,03:00,0.35673,R,ugm-3,0.48864,R,ugm-3,1.03562,R,ugm-3,58.17466,R,ugm-3
04-01-2013,04:00,0.46431,R,ugm-3,0.75974,R,ugm-3,1.47167,R,ugm-3,57.12691,R,ugm-3
04-01-2013,05:00,0.42814,R,ugm-3,0.76070,R,ugm-3,1.41716,R,ugm-3,57.17681,R,ugm-3
04-01-2013,06:00,0.64236,R,ugm-3,0.75926,R,ugm-3,1.74420,R,ugm-3,58.52390,R,ugm-3
04-01-2013,07:00,0.66647,R,ugm-3,0.94031,R,ugm-3,1.96223,R,ugm-3,59.17251,R,ugm-3
04-01-2013,08:00,0.60712,R,ugm-3,0.97681,R,ugm-3,1.90772,R,ugm-3,56.67788,R,ugm-3
04-01-2013,09:00,0.64267,R,ugm-3,0.97681,R,ugm-3,1.96223,R,ugm-3,55.13121,R,ugm-3
04-01-2013,10:00,0.64236,R,ugm-3,1.14081,R,ugm-3,2.12574,R,ugm-3,57.62584,R,ugm-3
04-01-2013,11:00,0.57126,R,ugm-3,1.35883,R,ugm-3,2.23476,R,ugm-3,58.52390,R,ugm-3
04-01-2013,12:00,0.46431,R,ugm-3,1.41382,R,ugm-3,2.12574,R,ugm-3,59.97079,R,ugm-3
04-01-2013,13:00,0.89276,R,ugm-3,1.68348,R,ugm-3,3.05235,R,ugm-3,59.82111,R,ugm-3
04-01-2013,14:00,0.78580,R,ugm-3,2.44704,R,ugm-3,3.65192,R,ugm-3,59.72132,R,ugm-3
04-01-2013,15:00,0.60712,R,ugm-3,3.10255,R,ugm-3,4.03346,R,ugm-3,56.97724,R,ugm-3
04-01-2013,16:00,0.71377,R,ugm-3,2.23045,R,ugm-3,3.32488,R,ugm-3,59.77122,R,ugm-3
04-01-2013,17:00,0.60712,R,ugm-3,2.01243,R,ugm-3,2.94334,R,ugm-3,61.31788,R,ugm-3
04-01-2013,18:00,0.78580,R,ugm-3,1.52044,R,ugm-3,2.72531,R,ugm-3,65.00993,R,ugm-3
04-01-2013,19:00,0.57158,R,ugm-3,0.86780,R,ugm-3,1.74420,R,ugm-3,73.04262,R,ugm-3
04-01-2013,20:00,0.82135,R,ugm-3,0.70284,R,ugm-3,1.96223,R,ugm-3,72.64348,R,ugm-3
04-01-2013,21:00,0.57095,R,ugm-3,0.86875,R,ugm-3,1.74420,R,ugm-3,71.19660,R,ugm-3
04-01-2013,22:00,0.71377,R,ugm-3,1.57638,R,ugm-3,2.67081,R,ugm-3,65.60864,R,ugm-3
04-01-2013,23:00,0.67853,R,ugm-3,1.63041,R,ugm-3,2.67081,R,ugm-3,61.86670,R,ugm-3
04-01-2013,24:00,0.60681,R,ugm-3,2.72149,R,ugm-3,3.65192,R,ugm-3,57.92519,R,ugm-3
05-01-2013,01:00,0.57168,R,ugm-3,2.83369,R,ugm-3,3.70968,R,ugm-3,53.68433,R,ugm-3
05-01-2013,02:00,,,,,,,,,,58.54053,R,ugm-3
05-01-2013,03:00,0.60744,R,ugm-3,1.57781,R,ugm-3,2.50949,R,ugm-3,55.87960,R,ugm-3
05-01-2013,04:00,0.75025,R,ugm-3,1.52235,R,ugm-3,2.67315,R,ugm-3,55.77982,R,ugm-3
05-01-2013,05:00,0.39321,R,ugm-3,1.41573,R,ugm-3,2.01850,R,ugm-3,54.83186,R,ugm-3
05-01-2013,06:00,0.57220,R,ugm-3,1.46832,R,ugm-3,2.34583,R,ugm-3,53.08562,R,ugm-3
05-01-2013,07:00,0.60712,R,ugm-3,1.30576,R,ugm-3,2.23672,R,ugm-3,53.48476,R,ugm-3
05-01-2013,08:00,0.46431,R,ugm-3,1.68826,R,ugm-3,2.40038,R,ugm-3,53.38498,R,ugm-3
05-01-2013,09:00,0.78642,R,ugm-3,2.01291,R,ugm-3,3.21869,R,ugm-3,52.38713,R,ugm-3
05-01-2013,10:00,0.60775,R,ugm-3,2.34090,R,ugm-3,3.27324,R,ugm-3,52.18756,R,ugm-3
05-01-2013,11:00,0.71439,R,ugm-3,2.88740,R,ugm-3,3.98245,R,ugm-3,50.84046,R,ugm-3
05-01-2013,12:00,1.39386,R,ugm-3,4.62729,R,ugm-3,6.76470,R,ugm-3,48.14626,R,ugm-3
05-01-2013,13:00,1.50081,R,ugm-3,6.37293,R,ugm-3,8.67410,R,ugm-3,46.84906,R,ugm-3
05-01-2013,14:00,1.03619,R,ugm-3,5.77623,R,ugm-3,7.36480,R,ugm-3,49.94239,R,ugm-3
05-01-2013,15:00,0.71502,R,ugm-3,4.68658,R,ugm-3,5.78273,R,ugm-3,51.83831,R,ugm-3
05-01-2013,16:00,0.71439,R,ugm-3,5.39660,R,ugm-3,6.49193,R,ugm-3,52.63659,R,ugm-3
05-01-2013,17:00,0.53603,R,ugm-3,5.12454,R,ugm-3,5.94639,R,ugm-3,51.23960,R,ugm-3
05-01-2013,18:00,0.78611,R,ugm-3,6.26822,R,ugm-3,7.47391,R,ugm-3,50.89035,R,ugm-3
05-01-2013,19:00,0.57220,R,ugm-3,7.90580,R,ugm-3,8.78320,R,ugm-3,51.38928,R,ugm-3
05-01-2013,20:00,0.75025,R,ugm-3,6.86970,R,ugm-3,8.01945,R,ugm-3,47.19831,R,ugm-3
05-01-2013,21:00,0.89338,R,ugm-3,7.19530,R,ugm-3,8.56499,R,ugm-3,47.79702,R,ugm-3
05-01-2013,22:00,0.75056,R,ugm-3,8.94142,R,ugm-3,10.09250,R,ugm-3,46.74927,R,ugm-3
05-01-2013,23:00,0.64330,R,ugm-3,10.74251,R,ugm-3,11.72912,R,ugm-3,41.76002,R,ugm-3
05-01-2013,24:00,0.75056,R,ugm-3,12.54265,R,ugm-3,13.69307,R,ugm-3,35.32389,R,ugm-3
06-01-2013,01:00,0.90554,R,ugm-3,13.09935,R,ugm-3,14.48770,R,ugm-3,35.25737,R,ugm-3
06-01-2013,02:00,,,,,,,,,,35.52346,R,ugm-3
06-01-2013,03:00,0.78611,R,ugm-3,7.14893,R,ugm-3,8.35409,R,ugm-3,40.46282,R,ugm-3
06-01-2013,04:00,0.42876,R,ugm-3,3.11020,R,ugm-3,3.76753,R,ugm-3,49.29379,R,ugm-3
06-01-2013,05:00,0.67884,R,ugm-3,1.79823,R,ugm-3,2.83930,R,ugm-3,51.28949,R,ugm-3
06-01-2013,06:00,0.89369,R,ugm-3,0.86828,R,ugm-3,2.23868,R,ugm-3,62.21595,R,ugm-3
06-01-2013,07:00,0.71470,R,ugm-3,0.76070,R,ugm-3,1.85646,R,ugm-3,68.90154,R,ugm-3
06-01-2013,08:00,1.00065,R,ugm-3,0.32226,R,ugm-3,1.85646,R,ugm-3,63.36348,R,ugm-3
06-01-2013,09:00,0.75056,R,ugm-3,0.21420,R,ugm-3,1.36505,R,ugm-3,67.50455,R,ugm-3
06-01-2013,10:00,0.75025,R,ugm-3,1.30672,R,ugm-3,2.45708,R,ugm-3,68.90154,R,ugm-3
06-01-2013,11:00,0.85783,R,ugm-3,1.90581,R,ugm-3,3.22151,R,ugm-3,47.84691,R,ugm-3
06-01-2013,12:00,0.82166,R,ugm-3,2.07076,R,ugm-3,3.33071,R,ugm-3,48.44562,R,ugm-3
06-01-2013,13:00,1.07205,R,ugm-3,3.05187,R,ugm-3,4.69576,R,ugm-3,49.44347,R,ugm-3
06-01-2013,14:00,1.03651,R,ugm-3,5.01744,R,ugm-3,6.60683,R,ugm-3,48.89465,R,ugm-3
06-01-2013,15:00,0.92924,R,ugm-3,7.47501,R,ugm-3,8.90011,R,ugm-3,44.15486,R,ugm-3
06-01-2013,16:00,0.78611,R,ugm-3,8.45899,R,ugm-3,9.66453,R,ugm-3,37.71873,R,ugm-3
06-01-2013,17:00,0.71470,R,ugm-3,11.57158,R,ugm-3,12.66764,R,ugm-3,31.13292,R,ugm-3
06-01-2013,18:00,0.60744,R,ugm-3,14.79367,R,ugm-3,15.72534,R,ugm-3,25.19571,R,ugm-3
06-01-2013,19:00,0.71470,R,ugm-3,17.19529,R,ugm-3,18.29163,R,ugm-3,17.81162,R,ugm-3
06-01-2013,20:00,0.89338,R,ugm-3,17.41331,R,ugm-3,18.78305,R,ugm-3,15.06754,R,ugm-3
06-01-2013,21:00,0.92893,R,ugm-3,19.26987,R,ugm-3,20.69411,R,ugm-3,14.36904,R,ugm-3
06-01-2013,22:00,0.96510,R,ugm-3,20.03344,R,ugm-3,21.51314,R,ugm-3,13.37119,R,ugm-3
06-01-2013,23:00,0.78611,R,ugm-3,21.07193,R,ugm-3,22.27757,R,ugm-3,13.47098,R,ugm-3
06-01-2013,24:00,0.67884,R,ugm-3,15.55819,R,ugm-3,16.59897,R,ugm-3,23.10023,R,ugm-3
07-01-2013,01:00,0.52470,R,ugm-3,12.09274,R,ugm-3,12.89733,R,ugm-3,29.13722,R,ugm-3
07-01-2013,02:00,,,,,,,,,,26.80890,R,ugm-3
07-01-2013,03:00,0.78705,R,ugm-3,17.64759,R,ugm-3,18.85414,R,ugm-3,20.25636,R,ugm-3
07-01-2013,04:00,0.82291,R,ugm-3,16.33562,R,ugm-3,17.59720,R,ugm-3,19.05894,R,ugm-3
07-01-2013,05:00,0.71564,R,ugm-3,14.80562,R,ugm-3,15.90306,R,ugm-3,19.05894,R,ugm-3
07-01-2013,06:00,0.96572,R,ugm-3,12.18167,R,ugm-3,13.66242,R,ugm-3,20.25636,R,ugm-3
07-01-2013,07:00,0.78705,R,ugm-3,11.79965,R,ugm-3,13.00663,R,ugm-3,20.60560,R,ugm-3
07-01-2013,08:00,0.67978,R,ugm-3,12.07361,R,ugm-3,13.11593,R,ugm-3,17.46238,R,ugm-3
07-01-2013,09:00,1.10916,R,ugm-3,12.39922,R,ugm-3,14.09962,R,ugm-3,15.66625,R,ugm-3
07-01-2013,10:00,1.18057,R,ugm-3,10.92372,R,ugm-3,12.73338,R,ugm-3,20.50582,R,ugm-3
07-01-2013,11:00,2.07457,R,ugm-3,12.94093,R,ugm-3,16.12166,R,ugm-3,19.40818,R,ugm-3
07-01-2013,12:00,4.79244,R,ugm-3,19.21106,R,ugm-3,26.55975,R,ugm-3,15.61635,R,ugm-3
07-01-2013,13:00,6.08059,R,ugm-3,23.63037,R,ugm-3,32.95376,R,ugm-3,10.42753,R,ugm-3
07-01-2013,14:00,8.29766,R,ugm-3,28.10036,R,ugm-3,40.82332,R,ugm-3,6.83527,R,ugm-3
07-01-2013,15:00,7.04569,R,ugm-3,31.76902,R,ugm-3,42.57211,R,ugm-3,7.23441,R,ugm-3
07-01-2013,16:00,2.64646,R,ugm-3,32.99445,R,ugm-3,37.05249,R,ugm-3,9.08044,R,ugm-3
07-01-2013,17:00,0.85845,R,ugm-3,29.72503,R,ugm-3,31.04102,R,ugm-3,13.92001,R,ugm-3
07-01-2013,18:00,0.85845,R,ugm-3,24.97056,R,ugm-3,26.28650,R,ugm-3,18.65980,R,ugm-3
07-01-2013,19:00,0.89400,R,ugm-3,22.45610,R,ugm-3,23.82726,R,ugm-3,22.50152,R,ugm-3
07-01-2013,20:00,0.85845,R,ugm-3,26.00809,R,ugm-3,27.32484,R,ugm-3,20.00689,R,ugm-3
07-01-2013,21:00,0.92986,R,ugm-3,30.76304,R,ugm-3,32.18867,R,ugm-3,15.76603,R,ugm-3
07-01-2013,22:00,0.93017,R,ugm-3,30.21607,R,ugm-3,31.64217,R,ugm-3,15.86582,R,ugm-3
07-01-2013,23:00,1.07299,R,ugm-3,29.23208,R,ugm-3,30.87707,R,ugm-3,17.71184,R,ugm-3
07-01-2013,24:00,0.92986,R,ugm-3,22.94809,R,ugm-3,24.37376,R,ugm-3,23.39958,R,ugm-3
08-01-2013,01:00,0.95419,R,ugm-3,20.17815,R,ugm-3,21.64128,R,ugm-3,24.81320,R,ugm-3
08-01-2013,02:00,,,,,,,,,,27.67371,R,ugm-3
08-01-2013,03:00,0.85877,R,ugm-3,13.05616,R,ugm-3,14.37287,R,ugm-3,31.63185,R,ugm-3
08-01-2013,04:00,0.64392,R,ugm-3,9.45110,R,ugm-3,10.43809,R,ugm-3,37.31959,R,ugm-3
08-01-2013,05:00,0.64392,R,ugm-3,9.61414,R,ugm-3,10.60204,R,ugm-3,37.41938,R,ugm-3
08-01-2013,06:00,0.71533,R,ugm-3,9.39611,R,ugm-3,10.49274,R,ugm-3,38.36733,R,ugm-3
08-01-2013,07:00,0.42907,R,ugm-3,8.46855,R,ugm-3,9.12650,R,ugm-3,38.76647,R,ugm-3
08-01-2013,08:00,0.60775,R,ugm-3,8.19458,R,ugm-3,9.12650,R,ugm-3,40.66239,R,ugm-3
08-01-2013,09:00,0.89431,R,ugm-3,7.75519,R,ugm-3,9.12650,R,ugm-3,41.56045,R,ugm-3
08-01-2013,10:00,0.85845,R,ugm-3,9.61366,R,ugm-3,10.92994,R,ugm-3,37.56905,R,ugm-3
08-01-2013,11:00,0.93017,R,ugm-3,12.45468,R,ugm-3,13.88102,R,ugm-3,35.87271,R,ugm-3
08-01-2013,12:00,1.96699,R,ugm-3,20.59284,R,ugm-3,23.60867,R,ugm-3,28.58840,R,ugm-3
08-01-2013,13:00,3.39796,R,ugm-3,30.91317,R,ugm-3,36.12344,R,ugm-3,20.15657,R,ugm-3
08-01-2013,14:00,3.50523,R,ugm-3,34.90217,R,ugm-3,40.27682,R,ugm-3,14.46883,R,ugm-3
08-01-2013,15:00,2.89685,R,ugm-3,36.59999,R,ugm-3,41.04192,R,ugm-3,11.77463,R,ugm-3
08-01-2013,16:00,1.96730,R,ugm-3,34.58230,R,ugm-3,37.59899,R,ugm-3,16.51442,R,ugm-3
08-01-2013,17:00,0.93017,R,ugm-3,26.28110,R,ugm-3,27.70739,R,ugm-3,23.59915,R,ugm-3
08-01-2013,18:00,1.00158,R,ugm-3,25.07861,R,ugm-3,26.61440,R,ugm-3,23.15012,R,ugm-3
08-01-2013,19:00,0.78705,R,ugm-3,26.17304,R,ugm-3,27.37949,R,ugm-3,18.95915,R,ugm-3
08-01-2013,20:00,0.78705,R,ugm-3,11.47213,R,ugm-3,12.67873,R,ugm-3,50.49121,R,ugm-3
08-01-2013,21:00,0.82259,R,ugm-3,3.76667,R,ugm-3,5.02777,R,ugm-3,66.55660,R,ugm-3
08-01-2013,22:00,0.60806,R,ugm-3,4.31412,R,ugm-3,5.24637,R,ugm-3,64.21165,R,ugm-3
08-01-2013,23:00,0.67947,R,ugm-3,4.31364,R,ugm-3,5.35567,R,ugm-3,64.51100,R,ugm-3
08-01-2013,24:00,0.71564,R,ugm-3,2.61869,R,ugm-3,3.71618,R,ugm-3,65.75832,R,ugm-3
09-01-2013,01:00,0.85939,R,ugm-3,1.45350,R,ugm-3,2.77134,R,ugm-3,66.32376,R,ugm-3
09-01-2013,02:00,,,,,,,,,,65.39244,R,ugm-3
09-01-2013,03:00,0.75150,R,ugm-3,0.76213,R,ugm-3,1.91441,R,ugm-3,65.85810,R,ugm-3
09-01-2013,04:00,0.71595,R,ugm-3,0.37915,R,ugm-3,1.47683,R,ugm-3,65.25939,R,ugm-3
09-01-2013,05:00,0.89494,R,ugm-3,0.59718,R,ugm-3,1.96911,R,ugm-3,64.01208,R,ugm-3
09-01-2013,06:00,0.68009,R,ugm-3,0.43366,R,ugm-3,1.47683,R,ugm-3,61.91659,R,ugm-3
09-01-2013,07:00,0.82353,R,ugm-3,0.48769,R,ugm-3,1.75032,R,ugm-3,62.16606,R,ugm-3
09-01-2013,08:00,0.93080,R,ugm-3,1.47167,R,ugm-3,2.89897,R,ugm-3,61.86670,R,ugm-3
09-01-2013,09:00,1.03807,R,ugm-3,2.40114,R,ugm-3,3.99292,R,ugm-3,62.06627,R,ugm-3
09-01-2013,10:00,0.64423,R,ugm-3,0.54363,R,ugm-3,1.53153,R,ugm-3,70.34843,R,ugm-3
09-01-2013,11:00,0.85908,R,ugm-3,0.26918,R,ugm-3,1.58623,R,ugm-3,72.29423,R,ugm-3
09-01-2013,12:00,0.85908,R,ugm-3,0.48769,R,ugm-3,1.80502,R,ugm-3,70.59789,R,ugm-3
09-01-2013,13:00,0.75181,R,ugm-3,0.48817,R,ugm-3,1.64093,R,ugm-3,71.09681,R,ugm-3
09-01-2013,14:00,0.75150,R,ugm-3,0.70715,R,ugm-3,1.85972,R,ugm-3,71.29638,R,ugm-3
09-01-2013,15:00,0.64423,R,ugm-3,1.96557,R,ugm-3,2.95367,R,ugm-3,69.00133,R,ugm-3
09-01-2013,16:00,0.96666,R,ugm-3,3.27659,R,ugm-3,4.75868,R,ugm-3,61.31788,R,ugm-3
09-01-2013,17:00,0.64423,R,ugm-3,4.15347,R,ugm-3,5.14157,R,ugm-3,56.22885,R,ugm-3
09-01-2013,18:00,0.60868,R,ugm-3,4.80946,R,ugm-3,5.74324,R,ugm-3,56.32863,R,ugm-3
09-01-2013,19:00,0.93111,R,ugm-3,3.27611,R,ugm-3,4.70399,R,ugm-3,64.01208,R,ugm-3
09-01-2013,20:00,0.82353,R,ugm-3,1.96414,R,ugm-3,3.22715,R,ugm-3,65.10971,R,ugm-3
09-01-2013,21:00,0.85908,R,ugm-3,1.63662,R,ugm-3,2.95367,R,ugm-3,65.25939,R,ugm-3
09-01-2013,22:00,0.71595,R,ugm-3,1.58212,R,ugm-3,2.68018,R,ugm-3,63.96219,R,ugm-3
09-01-2013,23:00,0.57251,R,ugm-3,1.03610,R,ugm-3,1.91441,R,ugm-3,64.01208,R,ugm-3
09-01-2013,24:00,0.75181,R,ugm-3,1.58212,R,ugm-3,2.73488,R,ugm-3,62.96434,R,ugm-3
10-01-2013,01:00,1.00283,R,ugm-3,1.16280,R,ugm-3,2.70077,R,ugm-3,63.99545,R,ugm-3
10-01-2013,02:00,,,,,,,,,,62.79803,R,ugm-3
10-01-2013,03:00,0.75212,R,ugm-3,1.80301,R,ugm-3,2.95625,R,ugm-3,60.81896,R,ugm-3
10-01-2013,04:00,0.78798,R,ugm-3,1.58355,R,ugm-3,2.79201,R,ugm-3,63.86240,R,ugm-3
10-01-2013,05:00,0.64485,R,ugm-3,1.03610,R,ugm-3,2.02558,R,ugm-3,60.22025,R,ugm-3
10-01-2013,06:00,0.78829,R,ugm-3,1.80158,R,ugm-3,3.01099,R,ugm-3,58.77337,R,ugm-3
10-01-2013,07:00,0.85939,R,ugm-3,3.00693,R,ugm-3,4.32488,R,ugm-3,59.87100,R,ugm-3
10-01-2013,08:00,0.71657,R,ugm-3,4.04733,R,ugm-3,5.14606,R,ugm-3,57.72562,R,ugm-3
10-01-2013,09:00,1.03900,R,ugm-3,6.01720,R,ugm-3,7.60960,R,ugm-3,57.62584,R,ugm-3
10-01-2013,10:00,1.00283,R,ugm-3,7.44058,R,ugm-3,8.97823,R,ugm-3,54.88175,R,ugm-3
10-01-2013,11:00,1.07455,R,ugm-3,5.52378,R,ugm-3,7.17164,R,ugm-3,57.87530,R,ugm-3
10-01-2013,12:00,1.32557,R,ugm-3,8.09513,R,ugm-3,10.12788,R,ugm-3,55.08132,R,ugm-3
10-01-2013,13:00,1.43315,R,ugm-3,13.40519,R,ugm-3,15.60241,R,ugm-3,48.09637,R,ugm-3
10-01-2013,14:00,1.57659,R,ugm-3,14.99161,R,ugm-3,17.40901,R,ugm-3,46.20046,R,ugm-3
10-01-2013,15:00,1.54073,R,ugm-3,18.71525,R,ugm-3,21.07695,R,ugm-3,40.01379,R,ugm-3
10-01-2013,16:00,1.25385,R,ugm-3,15.54145,R,ugm-3,17.46376,R,ugm-3,40.31314,R,ugm-3
10-01-2013,17:00,1.03869,R,ugm-3,18.22469,R,ugm-3,19.81780,R,ugm-3,35.92260,R,ugm-3
10-01-2013,18:00,1.00314,R,ugm-3,21.18142,R,ugm-3,22.71931,R,ugm-3,32.13077,R,ugm-3
10-01-2013,19:00,0.96697,R,ugm-3,18.82761,R,ugm-3,20.31051,R,ugm-3,33.22841,R,ugm-3
10-01-2013,20:00,0.71657,R,ugm-3,2.35046,R,ugm-3,3.44896,R,ugm-3,61.36778,R,ugm-3
10-01-2013,21:00,0.46618,R,ugm-3,0.59909,R,ugm-3,1.31389,R,ugm-3,63.81251,R,ugm-3
10-01-2013,22:00,0.85970,R,ugm-3,0.21468,R,ugm-3,1.53287,R,ugm-3,68.05337,R,ugm-3
10-01-2013,23:00,0.78829,R,ugm-3,0.48864,R,ugm-3,1.69711,R,ugm-3,67.40477,R,ugm-3
10-01-2013,24:00,0.57345,R,ugm-3,0.48912,R,ugm-3,1.36863,R,ugm-3,72.29423,R,ugm-3
11-01-2013,01:00,0.57376,R,ugm-3,0.43541,R,ugm-3,1.31504,R,ugm-3,73.04262,R,ugm-3
11-01-2013,02:00,,,,,,,,,,69.98255,R,ugm-3
11-01-2013,03:00,0.75181,R,ugm-3,0.65551,R,ugm-3,1.80817,R,ugm-3,71.19660,R,ugm-3
11-01-2013,04:00,0.50173,R,ugm-3,0.92900,R,ugm-3,1.69859,R,ugm-3,72.14456,R,ugm-3
11-01-2013,05:00,0.71657,R,ugm-3,0.76404,R,ugm-3,1.86297,R,ugm-3,66.20735,R,ugm-3
11-01-2013,06:00,0.60931,R,ugm-3,0.87449,R,ugm-3,1.80817,R,ugm-3,64.96004,R,ugm-3
11-01-2013,07:00,0.64485,R,ugm-3,1.09299,R,ugm-3,2.08214,R,ugm-3,65.80821,R,ugm-3
11-01-2013,08:00,0.89525,R,ugm-3,0.76404,R,ugm-3,2.13693,R,ugm-3,66.75617,R,ugm-3
11-01-2013,09:00,0.71626,R,ugm-3,1.47645,R,ugm-3,2.57528,R,ugm-3,67.50455,R,ugm-3
11-01-2013,10:00,0.75243,R,ugm-3,2.62730,R,ugm-3,3.78073,R,ugm-3,66.25724,R,ugm-3
11-01-2013,11:00,0.57345,R,ugm-3,3.72364,R,ugm-3,4.60262,R,ugm-3,64.66068,R,ugm-3
11-01-2013,12:00,0.50204,R,ugm-3,4.65407,R,ugm-3,5.42452,R,ugm-3,60.86885,R,ugm-3
11-01-2013,13:00,0.71626,R,ugm-3,5.47692,R,ugm-3,6.57518,R,ugm-3,59.17251,R,ugm-3
11-01-2013,14:00,0.71626,R,ugm-3,6.68228,R,ugm-3,7.78062,R,ugm-3,54.38283,R,ugm-3
11-01-2013,15:00,0.60899,R,ugm-3,9.25793,R,ugm-3,10.19152,R,ugm-3,50.79057,R,ugm-3
11-01-2013,16:00,0.71626,R,ugm-3,14.29833,R,ugm-3,15.39687,R,ugm-3,40.96174,R,ugm-3
11-01-2013,17:00,0.93111,R,ugm-3,18.79127,R,ugm-3,20.21866,R,ugm-3,33.37808,R,ugm-3
11-01-2013,18:00,0.75212,R,ugm-3,19.55866,R,ugm-3,20.71180,R,ugm-3,29.73593,R,ugm-3
11-01-2013,19:00,0.64517,R,ugm-3,17.03751,R,ugm-3,18.02694,R,ugm-3,32.92905,R,ugm-3
11-01-2013,20:00,0.78798,R,ugm-3,19.50368,R,ugm-3,20.71180,R,ugm-3,28.68819,R,ugm-3
11-01-2013,21:00,0.93111,R,ugm-3,21.14699,R,ugm-3,22.57477,R,ugm-3,25.99399,R,ugm-3
11-01-2013,22:00,0.89525,R,ugm-3,19.55818,R,ugm-3,20.93097,R,ugm-3,27.14152,R,ugm-3
11-01-2013,23:00,0.64454,R,ugm-3,17.80585,R,ugm-3,18.79404,R,ugm-3,29.78582,R,ugm-3
11-01-2013,24:00,0.96697,R,ugm-3,12.10565,R,ugm-3,13.58870,R,ugm-3,35.42368,R,ugm-3
12-01-2013,01:00,0.81282,R,ugm-3,13.58513,R,ugm-3,14.83067,R,ugm-3,33.26167,R,ugm-3
12-01-2013,02:00,,,,,,,,,,34.45909,R,ugm-3
12-01-2013,03:00,0.78892,R,ugm-3,9.91344,R,ugm-3,11.12300,R,ugm-3,39.61465,R,ugm-3
12-01-2013,04:00,0.50204,R,ugm-3,8.16112,R,ugm-3,8.93128,R,ugm-3,41.41078,R,ugm-3
12-01-2013,05:00,0.75306,R,ugm-3,4.98206,R,ugm-3,6.13683,R,ugm-3,47.34798,R,ugm-3
12-01-2013,06:00,0.78892,R,ugm-3,4.10518,R,ugm-3,5.31493,R,ugm-3,50.79057,R,ugm-3
12-01-2013,07:00,0.60962,R,ugm-3,3.94214,R,ugm-3,4.87659,R,ugm-3,49.89250,R,ugm-3
12-01-2013,08:00,0.53790,R,ugm-3,2.51733,R,ugm-3,3.34238,R,ugm-3,58.47401,R,ugm-3
12-01-2013,09:00,0.64548,R,ugm-3,1.80492,R,ugm-3,2.79445,R,ugm-3,66.10756,R,ugm-3
12-01-2013,10:00,0.75306,R,ugm-3,1.85895,R,ugm-3,3.01362,R,ugm-3,65.45896,R,ugm-3
12-01-2013,11:00,0.64548,R,ugm-3,2.79129,R,ugm-3,3.78073,R,ugm-3,66.15746,R,ugm-3
12-01-2013,12:00,0.64548,R,ugm-3,1.42099,R,ugm-3,2.41090,R,ugm-3,72.24434,R,ugm-3
12-01-2013,13:00,0.64548,R,ugm-3,1.47597,R,ugm-3,2.46569,R,ugm-3,70.99703,R,ugm-3
12-01-2013,14:00,0.86064,R,ugm-3,1.52952,R,ugm-3,2.84924,R,ugm-3,67.00563,R,ugm-3
12-01-2013,15:00,0.57376,R,ugm-3,1.96940,R,ugm-3,2.84924,R,ugm-3,65.75832,R,ugm-3
12-01-2013,16:00,0.57376,R,ugm-3,2.40784,R,ugm-3,3.28759,R,ugm-3,61.36778,R,ugm-3
12-01-2013,17:00,0.60962,R,ugm-3,2.73679,R,ugm-3,3.67114,R,ugm-3,56.32863,R,ugm-3
12-01-2013,18:00,0.71720,R,ugm-3,2.90031,R,ugm-3,3.99990,R,ugm-3,48.39573,R,ugm-3
12-01-2013,19:00,0.96822,R,ugm-3,2.35094,R,ugm-3,3.83552,R,ugm-3,50.79057,R,ugm-3
12-01-2013,20:00,0.71720,R,ugm-3,1.85895,R,ugm-3,2.95883,R,ugm-3,51.04003,R,ugm-3
12-01-2013,21:00,0.53790,R,ugm-3,1.53143,R,ugm-3,2.35610,R,ugm-3,54.63229,R,ugm-3
12-01-2013,22:00,0.71720,R,ugm-3,1.42099,R,ugm-3,2.52048,R,ugm-3,53.73422,R,ugm-3
12-01-2013,23:00,0.71720,R,ugm-3,1.74898,R,ugm-3,2.84924,R,ugm-3,52.98584,R,ugm-3
12-01-2013,24:00,0.71720,R,ugm-3,1.96892,R,ugm-3,3.06842,R,ugm-3,50.64089,R,ugm-3
13-01-2013,01:00,0.81282,R,ugm-3,1.75185,R,ugm-3,2.99797,R,ugm-3,54.54913,R,ugm-3
13-01-2013,02:00,,,,,,,,,,53.81738,R,ugm-3
13-01-2013,03:00,0.57376,R,ugm-3,1.64284,R,ugm-3,2.52268,R,ugm-3,51.83831,R,ugm-3
13-01-2013,04:00,0.60962,R,ugm-3,1.25890,R,ugm-3,2.19364,R,ugm-3,47.24820,R,ugm-3
13-01-2013,05:00,0.78892,R,ugm-3,1.69734,R,ugm-3,2.90657,R,ugm-3,52.23745,R,ugm-3